Location: Chris' Backyard Observatory
(47.3045°N, 122.2839°W)
Time: 00:27:37
(UTC-07:00)

Daily predictions for brighter satellites

Satellite Brightness Start Highest point End
(mag) Time Altitude Azimuth Time Altitude Azimuth Time Altitude Azimuth
H-2A R/B 4.3 00:02:50 12° WSW 00:04:32 14° W 00:07:03 10° WNW
Cosmos 1709 Rocket 4.0 00:09:35 61° SW 00:10:25 69° WNW 00:16:40 10° N
Cosmos 2278 Rocket 2.4 00:07:57 10° NNW 00:13:15 60° W 00:13:15 60° W
Cosmos 1844 Rocket 4.4 00:19:31 10° NW 00:23:39 21° W 00:23:46 21° WSW
H-2A R/B 3.9 00:24:34 24° WNW 00:24:34 24° WNW 00:27:21 10° NW
COSMOS 2455 3.0 00:19:02 10° NNW 00:25:03 63° NE 00:25:24 62° ENE
RESURS DK-1 4.4 00:29:01 23° NE 00:29:01 23° NE 00:30:40 10° NNE
Meteor 2-5 Rocket 3.8 00:21:15 10° N 00:27:01 75° ENE 00:27:01 75° ENE
SL-08 ROCKET BODY 4.3 00:28:25 83° WNW 00:28:25 83° WNW 00:34:15 10° N
Meteor 1-24 Rocket 4.2 00:26:38 10° N 00:32:14 54° ENE 00:32:14 54° ENE
Cosmos 2219 Rocket 3.2 00:37:45 36° W 00:39:11 42° NW 00:44:35 10° NNE
Cosmos 2154 Rocket 4.4 00:40:26 49° E 00:40:26 49° E 00:46:06 10° NNE
Terra 4.3 00:42:24 11° W 00:42:33 11° W 00:44:06 10° WNW
CZ-2C R/B 2.8 00:37:29 10° NNE 00:42:23 73° NNW 00:42:23 73° NNW
SL-16 R/B 2.8 00:45:21 49° ENE 00:45:21 49° ENE 00:49:42 10° NNE
COSMOS 2428 4.5 00:40:55 15° W 00:44:40 28° NW 00:49:33 10° N
Cosmos 2327 Rocket 4.4 00:48:56 87° WSW 00:48:59 88° W 00:55:20 10° N
Cosmos 2333 Rocket 3.3 00:56:44 33° W 00:58:04 38° NW 01:03:22 10° NNE
CZ-2C R/B 4.3 01:03:39 29° WNW 01:03:39 29° WNW 01:06:46 10° NNW
Mayak 0.4 01:03:16 10° NNE 01:05:36 33° NNE 01:05:36 33° NNE
Cosmos 2058 Rocket 4.5 01:11:23 36° NNW 01:11:23 36° NNW 01:14:19 10° N
Cosmos 1943 Rocket 4.0 01:05:42 10° N 01:10:12 25° NE 01:12:39 19° E
Cosmos 962 Rocket 4.5 01:21:44 74° E 01:21:44 74° E 01:27:50 10° NNE
Cosmos 2237 Rocket 3.3 01:20:44 34° WNW 01:21:45 36° NW 01:26:56 10° NNE
Cosmos 2369 Rocket 2.9 01:17:14 10° NNW 01:22:44 46° NE 01:23:26 43° ENE
ATLAS CENTAUR R/B 3.1 01:16:22 10° NW 01:25:23 63° WNW 01:25:23 63° WNW
ATLAS CENTAUR R/B 4.1 01:30:52 10° NW 01:30:58 11° NW 01:30:58 11° NW
Cosmos 1943 4.5 01:37:57 29° E 01:37:57 29° E 01:42:02 10° NE
Nadezhda 3 Rocket 4.3 01:31:01 10° NNW 01:37:04 57° W 01:37:04 57° W
CENTAUR R/B 3.5 01:31:48 10° NW 01:38:54 45° WSW 01:38:54 45° WSW
Cosmos 2341 Rocket 3.9 01:40:04 84° W 01:40:04 84° W 01:46:23 10° N
Lacrosse 5 3.8 01:37:16 10° WNW 01:41:37 27° N 01:45:58 10° NE
USA 215 3.4 01:47:50 55° W 01:47:50 55° W 01:53:18 10° WNW
H-2A R/B 4.3 01:46:40 10° NNE 01:48:32 24° NE 01:48:32 24° NE
CZ-4B R/B 4.5 01:59:32 12° NNW 01:59:32 12° NNW 01:59:46 10° NNW
Cosmos 1295 Rocket 4.5 02:01:30 68° W 02:01:40 69° WNW 02:07:55 10° N
Cosmos 2208 Rocket 4.2 02:03:57 73° N 02:03:57 73° N 02:08:55 10° NNE
Cosmos 2263 4.2 02:02:34 10° NNW 02:08:12 70° ENE 02:08:24 70° ENE
ADEOS Rocket 3.9 02:03:23 10° NNE 02:08:17 32° E 02:08:42 32° ESE
Cosmos 2366 rocket 3.9 02:09:12 76° SE 02:09:36 80° E 02:15:58 10° N
COSMOS 2455 4.4 02:05:39 10° NW 02:08:31 22° WNW 02:08:31 22° WNW
Cosmos 1727 Rocket 3.9 02:04:34 10° N 02:10:48 80° E 02:11:15 74° SE
Meteor 2-21 Rocket 4.3 02:12:57 82° SSE 02:13:14 87° E 02:19:30 10° N
Cosmos 1953 3.9 02:18:35 32° NNW 02:18:35 32° NNW 02:20:55 10° N
Meteor 2-15 Rocket 4.3 02:11:17 10° NNW 02:17:26 76° W 02:17:29 76° WSW
Cosmos 1603 3.7 02:19:17 72° WNW 02:19:17 72° WNW 02:24:54 10° NNE
Meteor 2-16 Rocket 4.2 02:26:14 79° S 02:26:39 89° W 02:32:48 10° N
NPP 4.5 02:23:24 10° NNE 02:28:28 40° E 02:29:00 39° ESE
SL-16 R/B 3.6 02:27:13 25° WNW 02:28:39 28° NW 02:33:28 10° N
Cosmos 1763 Rocket 3.7 02:34:52 58° E 02:34:52 58° E 02:39:37 10° NNE
SL-08 R/B 4.5 02:36:48 64° WSW 02:37:32 70° W 02:44:01 10° N
Cosmos 1937 Rocket 3.9 02:34:45 10° NNW 02:39:02 52° WNW 02:39:02 52° WNW
Cosmos 1743 Rocket 4.0 02:37:29 10° N 02:41:29 61° NE 02:41:29 61° NE
Mayak 1.3 02:41:00 10° NW 02:42:15 12° NW 02:42:15 12° NW
PSLV R/B 4.3 02:38:06 10° N 02:42:02 51° NW 02:42:02 51° NW
Cosmos 332 Rocket 4.1 02:43:39 61° NW 02:43:39 61° NW 02:48:14 10° NNE
Cosmos 2151 3.7 02:41:36 10° N 02:45:30 49° ENE 02:45:30 49° ENE
Cosmos 1242 Rocket 4.2 02:49:40 30° ENE 02:49:40 30° ENE 02:52:03 10° NNE
Cosmos 1125 Rocket 4.1 02:47:02 10° NNW 02:52:09 53° ENE 02:54:26 31° SE
Cosmos 1943 Rocket 2.1 02:48:58 10° NNW 02:54:06 64° W 02:54:06 64° W
Cosmos 468 Rocket 4.2 02:55:06 55° WNW 02:55:13 55° WNW 03:00:19 10° NNE
Resurs 1-4 Rocket 3.1 02:54:08 10° NNE 02:59:00 38° E 03:00:31 31° SE
IRS-P3 4.1 02:54:40 10° NNE 03:00:03 76° ESE 03:00:45 65° SSE
Cosmos 1656 Rocket 3.9 02:56:28 10° NNW 03:02:10 69° ENE 03:05:19 27° SE
SL-16 R/B 2.7 03:00:43 32° SSE 03:03:45 72° ENE 03:09:58 10° NNW
Cosmos 371 Rocket 3.8 03:06:13 47° WNW 03:06:17 47° WNW 03:11:00 10° NNE
Cosmos 2369 Rocket 3.3 03:01:34 10° NW 03:05:11 29° WNW 03:05:11 29° WNW
Cosmos 1821 Rocket 4.1 03:04:53 47° SSE 03:06:44 74° E 03:12:56 10° NNE
CZ-2D R/B 2.9 03:04:42 10° NNE 03:09:53 46° E 03:11:34 35° SE
AQUA 3.7 03:07:31 10° NNE 03:12:19 77° ESE 03:12:47 69° SSE
Cosmos 1814 Rocket 4.3 03:16:12 50° W 03:16:50 53° WNW 03:21:59 10° NNE
Helios 1A Rocket 3.2 03:13:02 10° N 03:16:42 57° NW 03:16:42 57° NW
Gblst 52 Del rocket 4.1 03:15:51 55° WSW 03:17:15 86° SSE 03:22:53 10° ENE
USA 229 DEB 3.8 03:13:43 10° NW 03:20:54 84° NE 03:28:14 10° SE
USA 32 3.9 03:15:42 10° N 03:20:59 84° W 03:22:01 59° S
Cosmos 1943 3.7 03:19:46 41° W 03:20:59 48° NW 03:26:29 10° NNE
USA 229 3.8 03:13:50 10° NW 03:21:01 84° NE 03:28:20 10° SE
Cosmos 1934 Rocket 4.0 03:19:10 41° SSE 03:21:22 73° E 03:27:26 10° NNE
Cosmos 841 Rocket 3.4 03:22:03 61° WSW 03:22:47 71° WNW 03:27:59 10° NNE
Cosmos 1626 3.1 03:21:22 10° NNW 03:23:57 39° NW 03:23:57 39° NW
H-2A R/B 4.3 03:22:54 10° NNW 03:25:08 18° NW 03:25:08 18° NW
Lacrosse 5 3.4 03:21:03 10° NW 03:25:44 36° NNE 03:30:24 10° E
COBE Rocket 4.2 03:21:23 10° N 03:26:19 51° WNW 03:26:52 48° W
Cosmos 1500 Rocket 3.8 03:22:02 10° NNW 03:26:00 54° WNW 03:26:00 54° WNW
Cosmos-2242 4.3 03:28:34 29° WNW 03:28:34 29° WNW 03:32:06 10° N
ARIANE 5 R/B 2.9 03:25:40 10° NNE 03:30:52 59° E 03:32:51 36° SSE
SL-08 R/B 3.8 03:33:57 43° W 03:33:57 43° W 03:38:10 10° NNW
UNKNOWN OBJECT B 4.4 03:30:12 10° NNE 03:33:50 31° E 03:35:28 23° SE
Cosmos 1400 Rocket 3.0 03:30:02 10° N 03:33:57 66° ENE 03:34:44 51° SE
Cosmos 1605 Rocket 4.3 03:32:11 28° SSE 03:35:40 66° E 03:42:01 10° NNE
UNK 3.6 03:35:53 62° SW 03:36:23 68° WSW 03:40:58 10° NNW
Cosmos 304 Rocket 3.8 03:37:36 56° WSW 03:38:22 67° WNW 03:43:10 10° NNE
Cosmos 1726 3.8 03:38:31 22° SE 03:39:55 29° E 03:43:11 10° NNE
MOZ.5/SAFIR/RUBIN 5/SL-8 4.0 03:39:35 23° SSE 03:42:25 67° ENE 03:47:06 10° N
SL-27 R/B 4.5 03:41:54 18° SE 03:42:54 20° E 03:45:28 10° NE
Cosmos 1703 4.1 03:41:24 10° NNW 03:44:21 36° WNW 03:44:21 36° WNW
ADEOS II 4.3 03:45:24 10° NE 03:49:19 21° E 03:53:12 10° SE
Cosmos 1666 Rocket 4.0 03:48:18 10° N 03:52:42 60° ENE 03:56:02 17° SSE
Cosmos 2058 3.9 03:49:23 10° NNW 03:52:27 31° WNW 03:52:27 31° WNW
ADEOS Rocket 3.4 03:48:52 10° N 03:53:57 39° WNW 03:55:38 31° WSW
Cosmos 1805 Rocket 3.5 03:50:13 10° N 03:54:42 87° W 03:56:30 36° S
IRS-1D 3.5 03:50:22 10° NNE 03:55:30 77° WNW 03:57:32 38° SSW
NOSS 3-1 (C) 4.2 03:48:10 10° NW 03:55:35 76° NE 04:03:54 10° SE
Cosmos 2221 2.4 03:54:47 51° SSW 03:55:47 75° W 04:00:08 10° N
Spot 4 Rocket 4.1 03:58:54 10° N 04:04:03 65° WNW 04:06:08 35° SW
ADEOS 3.5 03:59:01 10° NNE 04:04:16 85° WNW 04:06:52 31° SSW
BREEZE-M DEB (TANK) 2.4 04:05:03 45° WSW 04:06:02 74° S 04:12:33 10° E
BREEZE M DEB (TANK) 2.8 04:05:41 43° SW 04:06:20 49° SSW 04:14:09 10° SE
Cosmos 372 Rocket 4.3 04:04:18 10° NW 04:09:09 42° WSW 04:10:43 33° SW
Cosmos 1447 Rocket 4.4 04:05:23 10° N 04:11:35 82° W 04:17:42 10° S
Okean O Rocket 4.2 04:08:56 10° NE 04:11:56 18° E 04:14:54 10° SE
COSMOS 2406 3.2 04:11:14 29° SSW 04:14:16 90° ESE 04:20:01 10° NNE
Cosmos 1908 3.6 04:14:07 40° WSW 04:14:46 45° WNW 04:18:29 10° N
Cosmos 2098 Rocket 4.2 04:13:41 29° SW 04:15:56 41° WNW 04:20:37 10° N
Cosmos 540 Rocket 3.9 04:17:56 29° WSW 04:20:05 46° WNW 04:25:02 10° NNE
Cosmos 2285 Rocket 4.0 04:16:37 23° SSW 04:20:46 89° WNW 04:27:14 10° NNE
Cosmos 1242 Rocket 4.4 04:23:49 16° WNW 04:23:53 16° WNW 04:26:14 10° NNW
MOS 1 Rocket 3.5 04:20:02 10° N 04:24:10 46° WNW 04:25:56 30° SW
Cosmos 1300 2.8 04:22:37 23° S 04:24:54 73° E 04:28:45 10° NNE
Sich 1 3.1 04:24:25 10° NNW 04:28:45 58° W 04:31:36 20° SSW
CZ-2D R/B 3.3 04:28:24 10° N 04:32:26 70° WNW 04:34:38 25° SSW
Cosmos 2278 4.1 04:30:16 10° NNW 04:35:55 65° ENE 04:41:31 10° SE
Cosmos 1315 Rocket 3.1 04:33:36 10° NNW 04:37:30 46° W 04:39:52 21° SSW
Cosmos 2173 Rocket 4.2 04:32:28 10° S 04:38:45 78° E 04:45:09 10° N
Resurs 1-4 Rocket 3.0 04:34:07 10° N 04:38:47 34° WNW 04:41:35 20° WSW
Cosmos 1455 4.4 04:38:32 10° SE 04:41:39 25° E 04:44:46 10° NE
Meteor 2-17 Rocket 4.4 04:36:17 12° S 04:42:06 83° W 04:48:14 10° N
Cosmos 1470 Rocket 3.5 04:40:48 10° N 04:45:09 89° E 04:49:28 10° S
Cosmos 1697 Rocket 3.8 04:42:26 10° NNW 04:47:55 47° NE 04:53:22 10° SE
SL-16 R/B 3.7 04:45:49 18° WSW 04:47:57 22° W 04:52:37 10° NW
PSLV R/B 4.3 04:47:33 23° SSW 04:48:12 25° S 04:50:58 10° SE
USA 161 0.5 04:48:01 51° SW 04:48:15 56° WSW 04:50:12 10° NNW
CZ-2D R/B 3.2 04:45:10 10° N 04:49:45 29° WNW 04:52:54 17° WSW
Cosmos 2228 Rocket 3.1 04:46:16 10° S 04:50:43 89° ESE 04:55:11 10° N
Cosmos 482 Debris 3.3 04:51:42 25° W 04:52:50 52° SSW 04:56:04 10° SE
Cosmos 1538 Rocket 4.1 04:51:25 13° SSW 04:56:14 84° WNW 05:01:39 10° NNE
PSLV R/B 4.4 04:52:53 10° NNE 04:57:01 64° ESE 05:01:08 10° S
Cosmos 1515 Rocket 3.6 04:52:43 10° S 04:57:07 87° E 05:01:35 10° N
Cosmos 1633 Rocket 3.7 04:53:17 10° NNW 04:57:17 35° W 05:00:51 12° SSW
Cosmos 1459 Rocket 3.9 04:55:25 10° SSW 05:01:31 72° W 05:07:36 10° N
Cosmos 2082 Rocket 3.3 05:00:51 10° S 05:06:07 44° ESE 05:11:26 10° NE
Cosmos 292 Rocket 4.3 05:03:28 15° SW 05:07:05 42° WNW 05:11:42 10° N
CZ-4B R/B 3.4 05:02:42 10° NNE 05:07:09 73° ESE 05:11:40 10° S
UNKNOWN OBJECT B 4.1 05:04:49 10° N 05:08:15 26° WNW 05:10:55 14° WSW
Meteor 2-3 Rocket 3.7 05:03:26 10° NNW 05:09:06 84° W 05:14:47 10° S
Lacrosse 5 1.8 05:04:02 10° NW 05:09:08 81° SW 05:14:13 10° SE
ARIANE 5 R/B 4.0 05:05:33 10° N 05:09:35 23° WNW 05:13:11 12° WSW
ATLAS 2AS CENTAUR R/B 4.1 05:02:41 10° NW 05:10:32 49° NE 05:17:55 10° ESE
Cosmos 1726 3.6 05:13:09 14° WSW 05:15:16 21° WNW 05:18:10 10° NNW
NOSS 3-1 (A) 4.1 05:09:30 10° NW 05:16:55 58° WSW 05:25:05 10° SSE
SL-27 R/B 3.6 05:15:35 14° WSW 05:17:57 27° WNW 05:20:58 10° N
Cosmos 1892 2.7 05:15:25 10° NNW 05:19:12 60° W 05:22:59 10° S
CZ-4B R/B 3.6 05:14:05 10° NNE 05:19:34 65° ESE 05:24:56 10° S
Shenzhou-11 Module 4.2 05:18:58 10° SSW 05:21:05 17° SSE 05:23:12 10° ESE
Cosmos 2061 Rocket 4.2 05:15:31 10° SSW 05:21:52 59° WNW 05:28:13 10° N
CZ-2C R/B 4.2 05:17:30 10° SSE 05:21:53 65° ENE 05:26:21 10° N
Cosmos 1328 Rocket 4.2 05:19:37 10° SW 05:23:38 37° WNW 05:27:42 10° N
Landsat 4 3.6 05:20:14 10° SSE 05:23:58 81° WSW 05:27:46 10° NNW
Cosmos 1680 Rocket 4.0 05:18:53 10° S 05:24:06 63° ESE 05:29:23 10° NNE
PAYLOAD B 4.4 05:21:58 10° NNE 05:27:38 84° ESE 05:33:13 10° SSW
ADEOS II 2.2 05:24:16 10° N 05:29:27 60° WNW 05:34:36 10° SSW
PSLV R/B 3.6 05:25:22 10° N 05:29:44 73° WNW 05:34:02 10° SSW
Cosmos 2369 3.9 05:24:44 10° NW 05:30:12 50° WSW 05:35:37 10° S
Abrixas 4.0 05:30:52 10° WSW 05:32:29 15° SW 05:34:07 10° S
Cosmos 1825 3.2 05:30:28 10° N 05:34:13 53° ENE 05:37:56 10° SSE
Cosmos 2233 Rocket 4.4 05:30:11 10° S 05:36:15 70° E 05:42:22 10° NNE
Meteor 1-27 4.3 05:32:18 10° SSW 05:37:54 63° WNW 05:43:29 10° N
Cosmos 1933 Rocket 4.5 05:35:17 10° NNW 05:39:10 30° W 05:43:01 10° SSW
Cosmos 2322 Rocket 4.5 05:35:18 10° NNW 05:40:15 30° NE 05:45:10 10° ESE
Cosmos 2016 Rocket 4.2 05:35:19 10° SSW 05:41:15 52° WNW 05:47:12 10° N
USA 234 4.4 05:36:53 10° ENE 05:43:00 40° SE 05:49:03 10° SSW
